AO-07 1 07530U 74089B 21154.85575745 -.00000027 00000-0 11652-3 0 9990 2 07530 101.8530 129.3732 0012612 49.3442 63.9227 12.53648941130264 UO-11 1 14781U 84021B 21154.49760776 .00000104 00000-0 18795-4 0 9994 2 14781 97.5923 155.0268 0009760 121.8912 238.3253 14.83289057983868 LO-19 1 20442U 90005G 21154.73181509 -.00000002 00000-0 15750-4 0 9998 2 20442 98.7405 110.0736 0011324 196.3475 163.7345 14.32987822638924 HUBBLE 1 20580U 90037B 21154.57593646 .00000444 00000-0 15904-4 0 9997 2 20580 28.4686 156.9023 0002399 273.1903 225.3356 15.09651953508941 MET-2/21 1 22782U 93055A 21154.48593317 .00000046 00000-0 28159-4 0 9995 2 22782 82.5476 314.9953 0021717 333.7980 88.0706 13.83835626401593 AO-27 1 22825U 93061C 21154.45566346 -.00000007 00000-0 15304-4 0 9995 2 22825 98.9177 171.7282 0009549 77.4442 282.7807 14.30115848443982 IO-26 1 22826U 93061D 21154.84907325 .00000005 00000-0 19685-4 0 9998 2 22826 98.9118 172.0411 0009985 65.1317 295.0901 14.30454859444537 FO-29 1 24278U 96046B 21154.47405750 -.00000034 00000-0 14154-5 0 9991 2 24278 98.5676 224.3036 0350299 185.6975 174.0132 13.53104860224350 NOAA-15 1 25338U 98030A 21154.82476043 .00000078 00000-0 51120-4 0 9996 2 25338 98.6824 183.4714 0009600 326.1675 33.8891 14.26034417199309 GO-32 1 25397U 98043D 21154.56098743 -.00000009 00000-0 15626-4 0 9999 2 25397 98.7703 100.1513 0002291 106.5832 253.5598 14.23709104189514 ISS 1 25544U 98067A 21154.87740859 .00001325 00000-0 32269-4 0 9998 2 25544 51.6453 48.5571 0003384 62.4331 36.5671 15.48949215286533 NO-44 1 26931U 01043C 21154.47533485 -.00000035 00000-0 18460-4 0 9993 2 26931 67.0513 316.5111 0006554 261.4502 98.5856 14.30620558 27232 SO-50 1 27607U 02058C 21154.34087740 .00000016 00000-0 22774-4 0 9996 2 27607 64.5566 21.5018 0038978 25.9456 334.3589 14.75752827992462 CO-55 1 27844U 03031E 21154.82885587 .00000058 00000-0 45613-4 0 9992 2 27844 98.6797 163.2489 0011022 115.4174 244.8146 14.22311917930085 CO-57 1 27848U 03031J 21154.74761669 .00000047 00000-0 41030-4 0 9998 2 27848 98.6853 163.7340 0010742 127.5252 232.6904 14.21888489929898 RS-22 1 27939U 03042A 21154.80860669 .00000118 00000-0 29743-4 0 9994 2 27939 98.1392 291.9994 0012039 328.7531 31.2964 14.66987364945525 NOAA-18 1 28654U 05018A 21154.77581242 .00000064 00000-0 58926-4 0 9992 2 28654 98.9943 219.5855 0013450 324.2475 35.7794 14.12611133826604 CO-58 1 28895U 05043F 21154.34565079 .00000155 00000-0 38536-4 0 9996 2 28895 98.0569 287.8936 0015439 253.2478 106.7031 14.63915263831940 Falconsat-3 1 30776U 07006E 21154.49719518 .00003012 00000-0 73280-4 0 9993 2 30776 35.4328 189.9149 0002169 162.5062 197.5740 15.40665508790954 CO-65 1 32785U 08021C 21154.41921907 .00000290 00000-0 36608-4 0 9990 2 32785 97.6102 133.8074 0014288 53.9211 306.3328 14.88720699710087 AAUSAT2 1 32788U 08021F 21154.43920504 .00000319 00000-0 33693-4 0 9990 2 32788 97.5041 149.6847 0010689 323.9184 36.1315 14.95577098711765 DO-64 1 32789U 08021G 21154.09166115 .00001534 00000-0 10086-3 0 9993 2 32789 97.3766 190.0115 0011642 183.2556 176.8600 15.08951965714661 CO-66 1 32791U 08021J 21154.40704392 .00000279 00000-0 33236-4 0 9994 2 32791 97.5702 139.7222 0013752 20.1551 340.0208 14.91403746710680 RS-30 1 32953U 08025A 21154.70671252 .00000028 00000-0 12906-3 0 9991 2 32953 82.5065 59.4803 0020278 9.9834 350.1646 12.43102100591274 PRISM 1 33493U 09002B 21154.43168353 .00000987 00000-0 89762-4 0 9999 2 33493 98.1873 116.2977 0014076 338.7139 21.3494 14.97652132672227 NOAA-19 1 33591U 09005A 21154.80855368 .00000058 00000-0 56412-4 0 9996 2 33591 99.1837 175.1762 0014205 166.7651 193.3895 14.12472030634996 SRMSAT 1 37841U 11058D 21154.36565324 .00000304 00000-0 21896-4 0 9992 2 37841 19.9737 26.2222 0011959 139.0886 18.4573 14.10696277497671 HRBE 1 37855U 11061F 21154.48664371 .00001496 00000-0 78971-4 0 9995 2 37855 101.7133 70.6458 0167063 112.1940 249.7093 15.07618489524540 RS-40 1 38735U 12041C 21154.42312608 -.00000011 00000-0 -15131-3 0 9991 2 38735 82.4746 141.8446 0018391 113.8081 246.4929 12.42582588401445 ZACUBE-1 1 39417U 13066B 21154.46924119 .00000241 00000-0 36349-4 0 9995 2 39417 97.5921 139.5218 0057835 205.6366 154.1978 14.81514061407001 GOMX-1 1 39430U 13066Q 21154.75337062 .00000197 00000-0 44236-4 0 9991 2 39430 97.8137 78.6109 0150805 157.4877 203.3040 14.59609622401040 LO-74 1 39440U 13066AA 21154.69255551 .00000211 00000-0 36363-4 0 9996 2 39440 97.6751 124.7166 0078268 280.4813 78.7585 14.76243668405591 AO-73 1 39444U 13066AE 21154.46197632 .00000296 00000-0 42272-4 0 9999 2 39444 97.5827 141.8768 0057113 195.9330 164.0089 14.82420863405360 SPROUT 1 39770U 14029E 21154.56078400 .00001076 00000-0 12209-3 0 9996 2 39770 97.9143 265.8462 0007364 253.3213 106.7153 14.88414484381273 DTUSAT-2 1 40030U 14033W 21154.30967159 .00000236 00000-0 31073-4 0 9990 2 40030 97.9163 81.5585 0010791 216.0277 144.0213 14.88988987377214 EO-80 1 40032U 14033Y 21154.54128070 .00000326 00000-0 40696-4 0 9990 2 40032 97.9169 81.7964 0010732 216.3088 143.7402 14.88946310377224 HODOYOSHI-1 1 40299U 14070B 21154.78429803 .00000717 00000-0 31761-4 0 9997 2 40299 97.2858 228.7334 0013993 42.6454 52.8913 15.24711079365339 FIREBIRD FU3 1 40377U 15003B 21154.48664717 .00003252 00000-0 12102-3 0 9997 2 40377 99.0975 292.7955 0117275 219.2842 139.9838 15.22304174350662 FIREBIRD FU4 1 40378U 15003C 21154.79215083 .00003261 00000-0 12111-3 0 9990 2 40378 99.0981 293.3034 0117376 218.0695 141.2201 15.22355407350722 GRIFEX 1 40379U 15003D 21154.62628054 .00001716 00000-0 73006-4 0 9993 2 40379 99.0938 282.5429 0127493 251.1278 107.6091 15.17987465350091 NO-84 1 40654U 15025D 21153.24182471 .00032555 00000-0 23379-3 0 317 2 40654 54.9791 113.4950 0081625 27.3959 333.1202 15.68886576 4666 XW-2A 1 40903U 15049E 21154.83926185 .00002678 00000-0 58037-4 0 9990 2 40903 97.2361 209.3615 0013968 68.6708 44.5112 15.45233184320697 XW-2C 1 40906U 15049H 21154.84368235 .00000557 00000-0 31828-4 0 9993 2 40906 97.4855 157.3675 0013094 230.8894 249.3702 15.16724885315502 XW-2D 1 40907U 15049J 21154.84140255 .00000647 00000-0 36077-4 0 9995 2 40907 97.4843 157.1542 0012526 226.7958 256.5201 15.17043441315535 LILACSAT-2 1 40908U 15049K 21154.87630064 .00000527 00000-0 32237-4 0 9992 2 40908 97.5040 155.0535 0014124 244.6301 234.5437 15.14431830315179 XW-2E 1 40909U 15049L 21154.87637377 .00001259 00000-0 62459-4 0 9999 2 40909 97.4663 161.1825 0012068 210.9073 233.9335 15.19508230315878 XW-2F 1 40910U 15049M 21154.87547416 .00001259 00000-0 63351-4 0 9997 2 40910 97.4717 160.2583 0013236 211.2227 234.7938 15.19009788315663 XW-2B 1 40911U 15049N 21154.84341701 .00000631 00000-0 35357-4 0 9992 2 40911 97.4845 157.8405 0012398 228.0605 255.1055 15.16960426315428 DCBB 1 40912U 15049P 21154.83669072 .00001338 00000-0 62395-4 0 9993 2 40912 97.4450 164.5885 0014084 182.9177 301.5552 15.21541287316126 TW-1A 1 40928U 15051D 21154.87999049 .00003887 00000-0 82049-4 0 9996 2 40928 97.0771 180.1096 0008956 355.3557 129.9924 15.45749671319594 IO-86 1 40931U 15052B 21152.94181909 .00000906 00000-0 37096-4 0 9996 2 40931 5.9984 3.0085 0012629 185.0077 175.0813 14.76678874307001 ATHENOXAT-1 1 41168U 15077C 21154.26365917 .00002259 00000-0 79303-4 0 9996 2 41168 14.9891 5.3200 0011352 335.1701 172.2978 15.15665795302625 ChubuSat-2 1 41338U 16012B 21154.49810878 .00000345 00000-0 19972-4 0 9991 2 41338 31.0031 274.6445 0013716 354.8102 5.2390 15.00527816290502 ChubuSat-3 1 41339U 16012C 21154.52250453 .00000373 00000-0 22059-4 0 9994 2 41339 31.0117 271.7315 0013502 2.2063 357.8626 15.00675752290506 Horyu-4 1 41340U 16012D 21154.59573194 .00000508 00000-0 31323-4 0 9997 2 41340 31.0047 255.0088 0013785 34.6764 325.4769 15.01887379290704 e-st@r-II 1 41459U 16025D 21154.61503165 .00002261 00000-0 11237-3 0 9995 2 41459 98.1408 289.9918 0161856 109.1352 252.7475 15.08056405280331 AAUSAT4 1 41460U 16025E 21154.67231898 .00003100 00000-0 14564-3 0 9993 2 41460 98.1420 293.8607 0148725 93.0396 268.7866 15.11132061280636 LO-87 1 41557U 16033B 21154.78992880 .00001532 00000-0 56308-4 0 9996 2 41557 97.3924 248.8029 0011197 285.7154 173.2983 15.29409817279447 NuSat2 1 41558U 16033C 21154.80924981 .00001492 00000-0 51547-4 0 9992 2 41558 97.4031 252.5780 0010239 278.5669 179.7702 15.31499806279632 Lapan A3 1 41603U 16040E 21154.77071667 .00000212 00000-0 12858-4 0 9992 2 41603 97.2566 202.2218 0014815 55.1169 54.9796 15.20031766274503 Pratham 1 41783U 16059A 21154.10345510 .00000058 00000-0 20415-4 0 9995 2 41783 97.9650 204.7008 0032168 292.1464 67.6325 14.63140462250153 TY-1 1 41844U 16066D 21154.82255876 .00001005 00000-0 42124-4 0 9999 2 41844 97.3986 165.1816 0014527 178.6749 306.3115 15.25755324253822 CAS-2T 1 41847U 16066G 21154.42120108 .00000089 00000-0 24685-4 0 9990 2 41847 98.6018 213.4916 0364056 262.2654 93.7060 14.38191579239866 EO-88 1 42017U 17008BX 21154.61367430 .00002238 00000-0 84239-4 0 9998 2 42017 97.3161 222.4612 0006983 145.0069 215.1631 15.28125344239146 CAS-4B 1 42759U 17034B 21154.61200007 .00000413 00000-0 38137-4 0 9995 2 42759 43.0176 257.1776 0007683 71.8700 60.3289 15.10216708219058 CAS-4A 1 42761U 17034D 21154.60353568 .00000502 00000-0 43401-4 0 9997 2 42761 43.0178 256.2903 0007927 74.5126 56.3792 15.10303303219050 NIUSat 1 42766U 17036B 21154.38373333 .00001246 00000-0 56258-4 0 9991 2 42766 97.2509 200.8462 0013852 220.0099 140.0118 15.22700383219077 Aalto 1 1 42775U 17036L 21154.09321083 .00000938 00000-0 43157-4 0 9995 2 42775 97.2478 200.8227 0012357 219.7656 140.2676 15.22655146219015 URSA MAIOR 1 42776U 17036M 21154.09813898 .00001070 00000-0 48432-4 0 9995 2 42776 97.2492 201.2849 0012160 218.9021 141.1342 15.22914686219035 Max Valier Sat 1 42778U 17036P 21154.44616184 .00001245 00000-0 54849-4 0 9998 2 42778 97.2558 203.5160 0010690 218.6344 141.4129 15.23576703219156 Pegasus 1 42784U 17036V 21154.39001596 .00001494 00000-0 63708-4 0 9994 2 42784 97.2511 203.9241 0010215 222.5740 137.4707 15.24393175219218 NUDATSat 1 42787U 17036Y 21154.87310304 .00003017 00000-0 11888-3 0 9994 2 42787 97.2556 206.7496 0008625 216.2475 143.8172 15.26315132219261 SUCHAI 1 1 42788U 17036Z 21154.13389549 .00001805 00000-0 74664-4 0 9996 2 42788 97.2522 204.6458 0009754 219.9196 140.1326 15.25173864219303 SKCUBE 1 42789U 17036AA 21154.35744583 .00001675 00000-0 70014-4 0 9994 2 42789 97.2516 204.5818 0009682 219.6787 140.3744 15.24915417219245 VZLUSAT 1 1 42790U 17036AB 21154.14579448 .00002229 00000-0 88638-4 0 9996 2 42790 97.2545 206.0349 0009186 214.4121 145.6524 15.26280608219309 VENTA 1 1 42791U 17036AC 21154.40369451 .00001598 00000-0 67047-4 0 9996 2 42791 97.2512 204.6425 0009377 219.9113 140.1437 15.24863788219246 Robusta 1B 1 42792U 17036AD 21154.78773648 .00001787 00000-0 74011-4 0 9994 2 42792 97.2518 205.3726 0009295 217.6977 142.3611 15.25150943219349 D-SAT 1 42794U 17036AF 21154.47174675 .00000441 00000-0 43528-4 0 9992 2 42794 97.4616 175.1060 0123905 272.7386 85.9657 14.91568115215005 TechnoSat 1 42829U 17042E 21154.36371489 .00000115 00000-0 16788-4 0 9994 2 42829 97.4711 24.6494 0013793 187.9095 172.1909 14.91282974211580 QIKCOM-1 1 42983U 98067NF 21154.80673607 .00007070 00000-0 71323-4 0 9990 2 42983 51.6368 328.7066 0002637 296.9869 63.0857 15.66633451205260 AO-91 1 43017U 17073E 21154.26670121 .00000910 00000-0 75508-4 0 9990 2 43017 97.7081 58.8140 0254768 347.0453 12.4292 14.79542612191027 EcAMSat 1 43019U 98067NG 21154.25498548 .00023245 00000-0 13293-3 0 9992 2 43019 51.6370 298.0478 0002937 286.1602 73.9076 15.78750115287947 PICSAT 1 43132U 18004X 21154.15547735 .00001798 00000-0 73133-4 0 9992 2 43132 97.4092 228.8262 0007407 255.9208 104.1207 15.25818186188507 AO-92 1 43137U 18004AC 21154.62128281 .00001393 00000-0 58295-4 0 9993 2 43137 97.4069 228.7938 0007141 257.3394 102.7046 15.25222623188546 TianYi 2 1 43155U 18008A 21154.89672891 .00000953 00000-0 58344-4 0 9993 2 43155 97.4021 220.2713 0017759 21.4566 65.0805 15.12420877186021 Zhou Enlai 1 43156U 18008B 21154.89407370 .00000950 00000-0 58855-4 0 9996 2 43156 97.4062 220.1037 0014994 21.9734 64.7072 15.12025016185965 TianYi 6 1 43158U 18008D 21154.16311735 .00001203 00000-0 74691-4 0 9995 2 43158 97.4023 217.9912 0014145 23.5733 30.2098 15.11457169185788 S-Net D 1 43186U 18014G 21154.45374391 -.00000316 00000-0 -22417-4 0 9997 2 43186 97.6788 62.2922 0011950 123.7781 236.4581 14.97057843182207 S-Net B 1 43187U 18014H 21154.52049678 -.00000316 00000-0 -22372-4 0 9993 2 43187 97.6785 62.3248 0011957 123.5560 236.6806 14.97057294182210 S-Net A 1 43188U 18014J 21154.32001895 -.00000324 00000-0 -23071-4 0 9997 2 43188 97.6789 62.1719 0011946 124.1919 236.0437 14.97056210182186 S-Net C 1 43189U 18014K 21154.32049935 -.00000317 00000-0 -22445-4 0 9991 2 43189 97.6785 62.1211 0011931 124.1637 236.0718 14.97055938180738 FMN 1 1 43192U 18015A 21154.85704919 .00002496 00000-0 94090-4 0 9997 2 43192 97.4873 290.1582 0013071 292.9917 169.9617 15.27968200185516 Shaonian Xing 1 43199U 18015H 21154.87573998 .00001757 00000-0 68018-4 0 9997 2 43199 97.4654 287.3844 0014398 303.6980 155.2430 15.27477898185577 SurfSat 1 43614U 18070B 21154.65793589 .00004202 00000-0 98237-4 0 9990 2 43614 93.0298 300.2439 0016430 63.2316 297.0618 15.42062512152545 CP-7 DAVE 1 43615U 18070C 21154.41303897 .00003676 00000-0 86778-4 0 9995 2 43615 93.0303 300.0997 0016618 63.9098 296.3865 15.41775537152499 ELFIN-B 1 43616U 18070D 21154.39715149 .00006307 00000-0 13517-3 0 9994 2 43616 93.0256 300.2659 0016262 62.3197 297.9708 15.44628633152605 ELFIN-A 1 43617U 18070E 21154.42582077 .00006610 00000-0 13956-3 0 9995 2 43617 93.0305 301.1112 0015498 59.5546 300.7240 15.45079835152622 STARS-Me Mother 1 43640U 98067PQ 21154.54455062 .00230954 34122-4 39281-3 0 9996 2 43640 51.6213 300.7110 0008402 301.2471 58.7716 16.02061925152083 CubeBel 1 1 43666U 18083E 21154.74891025 .00001279 00000-0 63745-4 0 9992 2 43666 97.4564 183.2905 0013498 211.0422 259.7650 15.19312579143934 Changshagaoxin 1 43669U 18083H 21154.79424072 .00001045 00000-0 54519-4 0 9994 2 43669 97.4460 180.4507 0009785 202.8385 272.0996 15.18097749143815 Ten-Koh 1 43677U 18084G 21154.29005003 .00000266 00000-0 33137-4 0 9995 2 43677 97.9183 277.2925 0017436 82.4688 277.8509 14.90465333141199 PO-101 1 43678U 18084H 21154.70288320 .00000075 00000-0 13159-4 0 9997 2 43678 97.9222 279.9130 0011439 95.2071 265.0462 14.91749219141383 IRVINE 01 1 43693U 18088D 21154.38587796 .00003321 00000-0 12889-3 0 9996 2 43693 85.0357 204.3066 0019079 79.9279 280.4117 15.25510978142299 QO-100 1 43700U 18090A 21154.49602633 .00000140 00000-0 00000-0 0 9993 2 43700 0.0174 312.4811 0001352 146.7267 357.3536 1.00275201 9236 Reaktor Hello World 1 43743U 18096AA 21154.44225521 .00001584 00000-0 59196-4 0 9995 2 43743 97.3862 232.0605 0016221 331.2989 28.7356 15.28758701139999 MinXSS-2 1 43758U 18099A 21154.45740046 .00000351 00000-0 36260-4 0 9997 2 43758 97.6667 225.9402 0016977 95.8294 264.4863 14.96045690136424 AO-95 1 43770U 18099N 21154.46437051 .00000599 00000-0 59422-4 0 9990 2 43770 97.6651 224.9601 0016089 103.9038 256.3973 14.95314317136361 RANGE-B 1 43772U 18099Q 21154.29481437 .00000472 00000-0 47519-4 0 9994 2 43772 97.6740 225.7674 0015814 92.3571 267.9460 14.95616606136342 RANGE-A 1 43773U 18099R 21154.13420494 .00000624 00000-0 61848-4 0 9994 2 43773 97.6586 223.9749 0015137 93.2370 267.0583 14.95209294136303 MOVE-II 1 43780U 18099Y 21154.43147795 .00000380 00000-0 38964-4 0 9997 2 43780 97.6673 225.4457 0015065 100.5486 259.7433 14.95917421136378 SNUSat 2 1 43782U 18099AA 21154.16479384 .00000092 00000-0 13412-4 0 9992 2 43782 97.6653 225.0034 0014351 91.6123 268.6742 14.95559781136339 SnugLite 1 43784U 18099AC 21154.50889325 -.00000030 00000-0 24516-5 0 9993 2 43784 97.6616 225.0704 0016541 97.7133 262.5967 14.95682689136409 ITASat 1 1 43786U 18099AE 21154.45323259 .00000111 00000-0 15060-4 0 9990 2 43786 97.6670 225.6176 0016631 97.5107 262.8004 14.95609503136396 EAGLET 1 1 43790U 18099AJ 21154.15654879 .00000462 00000-0 46250-4 0 9991 2 43790 97.6664 225.7335 0015119 101.4026 258.8894 14.95963712136079 ESEO 1 43792U 18099AL 21154.20615754 .00000535 00000-0 53032-4 0 9995 2 43792 97.6627 225.3856 0014929 99.0817 261.2094 14.95737099136136 CSIM 1 43793U 18099AM 21154.50658850 .00000192 00000-0 21897-4 0 9996 2 43793 97.6658 226.0431 0014532 94.5635 265.7247 14.96577332136183 Astrocast 0.1 1 43798U 18099AS 21154.44283953 .00000075 00000-0 11710-4 0 9995 2 43798 97.6668 226.2039 0013842 82.3593 277.9200 14.96182979136426 JO-97 1 43803U 18099AX 21154.41940479 .00000739 00000-0 71031-4 0 9991 2 43803 97.6636 225.3378 0016828 97.3617 262.9517 14.95857842136392 Suomi 100 1 43804U 18099AY 21154.42462402 .00000472 00000-0 47270-4 0 9990 2 43804 97.6633 225.3107 0016866 97.2842 263.0297 14.95829711136404 Al Farabi 2 1 43805U 18099AZ 21154.49461928 .00001061 00000-0 99344-4 0 9994 2 43805 97.6636 225.5921 0017164 97.2965 263.0203 14.96050072136428 CHOMPTT 1 43855U 18104G 21154.46770758 .00001419 00000-0 56785-4 0 9996 2 43855 85.0353 302.7740 0016526 190.6667 169.4228 15.23948860136962 ISAT 1 43879U 18111D 21154.75644981 .00000617 00000-0 59129-4 0 9994 2 43879 97.6852 62.2576 0013922 143.4681 216.7496 14.96620672131005 UWE-4 1 43880U 18111E 21154.47926720 .00000617 00000-0 58766-4 0 9995 2 43880 97.6875 62.4499 0013079 145.2364 214.9715 14.96857154130997 Sparrow 1 43881U 18111F 21154.31680234 -.00000109 00000-0 -44891-5 0 9999 2 43881 97.6892 62.4196 0013029 142.4763 217.7371 14.96917984132975 Lume 1 1 43908U 18111AJ 21154.49516964 .00001506 00000-0 60664-4 0 9991 2 43908 97.2348 49.6516 0020073 346.0793 13.9890 15.26200507135540 FO-98 1 43933U 19003B 21154.07591847 .00008901 00000-0 34067-3 0 9990 2 43933 97.1841 196.0185 0018213 86.5441 273.7881 15.26628001131919 FO-99 1 43937U 19003F 21154.09020843 .00001821 00000-0 73576-4 0 9992 2 43937 97.1772 197.8476 0024861 65.6929 294.6902 15.25702328132071 MYSat 1 1 44045U 18092F 21154.77756753 .00003280 00000-0 91276-4 0 9999 2 44045 51.6367 132.9111 0010282 152.4390 207.7142 15.39833229129350 AstroCast 0.2 1 44083U 19018F 21154.11278269 .00001321 00000-0 59847-4 0 9991 2 44083 97.3734 215.4615 0013547 30.0249 330.1761 15.22545088120718 AISTechSat 3 1 44103U 19018AB 21154.75021226 .00001074 00000-0 47099-4 0 9994 2 44103 97.3598 216.4701 0014223 38.5703 57.6200 15.24045864120927 AISat 1 1 44104U 19018AC 21154.62638182 .00001263 00000-0 41352-4 0 9992 2 44104 97.4257 231.8542 0057867 45.8928 314.7054 15.32051853121554 Raavana-1 1 44329U 98067QE 21153.96634989 .00040398 00000-0 25597-3 0 9993 2 44329 51.6361 359.7935 0004550 220.7054 139.3606 15.76110778111870 Uguisu 1 44330U 98067QF 21154.27640854 .00039974 00000-0 25875-3 0 9995 2 44330 51.6324 358.7727 0004584 221.3724 138.6929 15.75626914111892 NepaliSat-1 1 44331U 98067QG 21154.27840208 .00041411 00000-0 26291-3 0 9993 2 44331 51.6339 358.0344 0004468 222.0739 137.9919 15.76054091111918 Prox-1 1 44339U 19036A 21154.43118265 .00000959 00000-0 17562-3 0 9992 2 44339 24.0011 62.5195 0010453 30.2190 329.8903 14.53574353103131 Oculus-ASR 1 44348U 19036K 21154.54655198 .00010733 00000-0 14318-3 0 9992 2 44348 28.5103 226.3641 0332164 116.4717 247.0340 15.11672989106808 Armadillo 1 44352U 19036P 21154.45759518 .00016175 00000-0 20311-3 0 9994 2 44352 28.5266 206.7209 0302618 146.6710 215.3331 15.18958098106942 NO-104 1 44354U 19036R 21154.45714235 .00010572 00000-0 13752-3 0 9999 2 44354 28.5258 220.3323 0327180 124.2794 238.9228 15.13168118106856 NO-103 1 44355U 19036S 21154.37384691 .00024241 00000-0 26695-3 0 9998 2 44355 28.5240 178.0942 0266563 193.1116 166.2441 15.28777223107269 CP9 1 44360U 19036X 21154.60104024 .00073972 -53424-5 50676-3 0 9995 2 44360 28.5044 114.5453 0192182 298.2085 59.9233 15.52010444107782 Move-IIb 1 44398U 19038N 21154.82427897 .00001731 00000-0 99445-4 0 9996 2 44398 97.5834 118.8905 0024713 1.0772 359.0509 15.13619860105706 SONATE 1 44400U 19038Q 21154.81906644 .00001000 00000-0 60837-4 0 9993 2 44400 97.5888 118.7708 0025039 0.8887 359.2384 15.12532976105675 BeeSat 9 1 44412U 19038AC 21154.65029434 .00001265 00000-0 74562-4 0 9994 2 44412 97.5870 118.8668 0022425 6.3858 353.7654 15.13251858105363 JAISAT-1 1 44419U 19038F 21154.69057027 .00001248 00000-0 72663-4 0 9995 2 44419 97.5874 119.4434 0021240 4.6808 355.4618 15.13736371105718 LightSail-2 1 44420U 19036AC 21154.36721283 .00005190 00000-0 10135-2 0 9995 2 44420 24.0052 43.1928 0007258 57.9022 302.2175 14.60083282101458 Taurus 1 1 44530U 19059C 21154.74938487 .00000661 00000-0 19766-3 0 9998 2 44530 98.5505 244.9754 0014142 176.6982 183.4304 14.46057602 91105 Duchifat 3 1 44854U 19089C 21154.41004099 .00000347 00000-0 34121-4 0 9991 2 44854 36.9641 183.6837 0008475 17.6127 342.4907 14.99488893 80998 OPS-SAT 1 44878U 19092F 21154.46563930 .00000943 00000-0 51773-4 0 9994 2 44878 97.4751 338.1647 0012820 212.9492 147.0943 15.16501291 80715 TO-108 1 44881U 19093C 21154.75619048 .00000081 00000-0 17123-4 0 9997 2 44881 97.9238 233.7314 0014769 343.4405 16.6322 14.81452683 78702 FloripaSat 1 1 44885U 19093G 21154.78497101 .00000312 00000-0 45756-4 0 9998 2 44885 97.9248 234.3230 0014358 351.8692 8.2285 14.82293685 78741 RS-44 1 44909U 19096E 21154.39841229 .00000030 00000-0 67915-4 0 9997 2 44909 82.5191 122.1509 0218277 125.7692 236.3921 12.79710035 67029 SwampSat-2 1 45115U 19071E 21154.43500898 .00037258 00000-0 59757-3 0 9995 2 45115 51.6354 85.6935 0003919 246.4382 113.6196 15.52690189 75262 HO-107 1 45119U 19071J 21154.75170482 .00002151 00000-0 71873-4 0 9994 2 45119 51.6417 103.3211 0010632 239.6458 120.3474 15.35719033 75062 Phoenix 1 45258U 98067RB 21154.17759814 .00006754 00000-0 10062-3 0 9993 2 45258 51.6410 40.3351 0005419 190.9228 169.1647 15.56393241 72988 AztechSat-1 1 45261U 98067RE 21154.75047842 .00027262 00000-0 28008-3 0 9998 2 45261 51.6375 27.6466 0005625 208.3158 151.7532 15.64678931 73221 QARMAN 1 45263U 98067RG 21154.37994459 .00015984 00000-0 19129-3 0 9995 2 45263 51.6398 34.1930 0005630 203.1721 156.9020 15.61133235 73142 Quetzal 1 1 45598U 98067RL 21154.08625831 .00013103 00000-0 16962-3 0 9992 2 45598 51.6411 39.7525 0000473 320.4032 39.6926 15.59258559 62311 BY70-2 1 45857U 20042B 21154.75731343 .00001424 00000-0 20920-3 0 9990 2 45857 97.9835 230.6469 0009259 254.2257 105.7924 14.76998153 49525 UPMSat 2 1 46276U 20061E 21154.82501468 .00000562 00000-0 32248-4 0 9997 2 46276 97.4325 228.8768 0002892 72.8198 287.3352 15.16454676 41475 AmicalSat 1 46287U 20061R 21154.59608679 .00000742 00000-0 48922-4 0 9991 2 46287 97.4877 228.1659 0004000 125.9382 234.2219 15.10457312 41252 SALSAT 1 46495U 20068K 21154.55104924 .00000289 00000-0 25718-4 0 9993 2 46495 97.6948 92.1295 0018787 116.9328 243.3818 15.03458523 37243 BY70-3 1 46839U 20079N 21154.88043689 .00002300 00000-0 73160-4 0 9993 2 46839 97.2403 229.0054 0005264 250.8263 222.1700 15.33598628 32124 SPOC 1 46921U 98067RR 21153.99199491 .00006517 00000-0 10557-3 0 9995 2 46921 51.6429 48.1347 0002366 50.4495 309.6704 15.54133675 32613 Bobcat-1 1 46922U 98067RS 21154.21432459 .00009724 00000-0 14538-3 0 9992 2 46922 51.6437 45.8869 0002227 64.4477 295.6744 15.55712900 32621 Neutron-1 1 46923U 98067RT 21154.13498482 .00007013 00000-0 11355-3 0 9995 2 46923 51.6431 47.5875 0002505 62.6699 297.4547 15.54013156 32668 CAPE 3 1 47309U 21002A 21154.50880573 .00000895 00000-0 51965-4 0 9999 2 47309 60.6864 344.0899 0039773 41.3985 319.0103 15.20742152 20762 AO-109 1 47311U 21002C 21154.23046295 .00000752 00000-0 44722-4 0 9992 2 47311 60.6855 344.4406 0034476 40.3451 320.0183 15.21619330 20701 MiTEE 1 1 47314U 21002F 21154.51198250 .00002079 00000-0 98036-4 0 9996 2 47314 60.6865 342.3784 0033647 32.6584 327.6574 15.23057915 20783 ExoCube 2 1 47319U 21002L 21154.65762943 .00001492 00000-0 77359-4 0 9995 2 47319 60.6854 343.1051 0037162 42.6819 317.7144 15.21254046 20730 UVSQ-SAT 1 47438U 21006AB 21154.42814428 .00000916 00000-0 55273-4 0 9993 2 47438 97.4879 215.9026 0013834 141.2302 218.9924 15.13111794 19939 YUSAT 1 1 47439U 21006AC 21154.43032038 .00001077 00000-0 64381-4 0 9993 2 47439 97.4881 215.9026 0013726 141.5160 218.7053 15.13099660 19936 SOMP 2b 1 47445U 21006AJ 21154.44103301 .00000901 00000-0 54661-4 0 9998 2 47445 97.4852 215.8361 0013369 144.4557 215.7567 15.12954311 19936 IDEASSat 1 47458U 21006AX 21154.12196183 .00000873 00000-0 53339-4 0 9996 2 47458 97.4942 215.6550 0012522 143.0599 217.1497 15.12816585 19881 RSP-01 1 47925U 98067SB 21154.77710483 .00008865 00000-0 15571-3 0 9996 2 47925 51.6437 48.1113 0001791 17.2603 342.8448 15.51329844 12659 TAUSAT-1 1 47926U 98067SC 21154.43377301 .00009048 00000-0 15559-3 0 9998 2 47926 51.6435 49.5688 0002785 6.3920 353.7105 15.51903585 12599 Tsuru 1 47927U 98067SD 21154.13598929 .00006757 00000-0 12116-3 0 9997 2 47927 51.6440 51.3296 0001834 10.5524 349.5504 15.51184027 12557 STARS-EC 1 47928U 98067SE 21154.78162482 .00011480 00000-0 19928-3 0 9997 2 47928 51.6433 48.1369 0006352 67.7987 292.3676 15.51322435 12633 Maya-2 1 47929U 98067SF 21153.94104588 .00006081 00000-0 10972-3 0 9999 2 47929 51.6438 52.2775 0001847 4.5350 355.5656 15.51210832 12483 OPUSAT-II 1 47930U 98067SG 21154.19012625 .00010249 00000-0 17658-3 0 9998 2 47930 51.6439 50.9422 0001580 7.7966 352.3048 15.51683020 12564 GuaraniSat-1 1 47931U 98067SH 21154.13362708 .00006700 00000-0 12003-3 0 9999 2 47931 51.6442 51.3146 0001879 3.8216 356.2788 15.51227976 12550 CubeSX-Sirius-HSE 1 47951U 21022V 21154.91099832 -.00000030 00000-0 22015-5 0 9996 2 47951 97.5595 57.3372 0022711 2.1370 128.5960 15.05639285 11019 CubeSX-HSE 1 47952U 21022W 21154.90996542 .00000043 00000-0 72648-5 0 9990 2 47952 97.5588 57.3382 0022493 1.5392 133.7071 15.05678184 11019 KSU-Cubesat 1 47954U 21022Y 21153.68526987 .00000939 00000-0 68837-4 0 9996 2 47954 97.5604 56.1511 0021918 5.4292 354.7169 15.05760419 10558 GRBAlpha 1 47959U 21022AD 21154.70139985 .00000040 00000-0 70428-5 0 9996 2 47959 97.5598 57.1399 0022382 2.9533 81.5345 15.05675604 9804 Orbicraft-Zorkiy 1 47960U 21022AE 21154.76488484 .00000251 00000-0 21549-4 0 9998 2 47960 97.5610 57.2206 0022192 2.2113 83.1699 15.05742365 10503 STECCO 1 47962U 21022AG 21154.78364501 .00000763 00000-0 55293-4 0 9996 2 47962 97.5575 57.3200 0017231 1.5639 87.7213 15.06773449 9815 DO-111 1 47963U 21022AH 21154.61919175 .00002438 00000-0 16548-3 0 9992 2 47963 97.5592 57.1970 0019887 357.3642 2.7477 15.07188022 9819 MO-110 1 47964U 21022AJ 21154.29008316 .00000986 00000-0 69703-4 0 9991 2 47964 97.5593 56.8660 0019966 358.5868 1.5300 15.07035866 9745 /EX